RYR150 EPMO-EPRZ

Flight info

Callsign RYR150
Flight time 0h 38m
Altitude 25000
Route XIMBA N195 VELAX
Aircraft B738/M-SDE2E3FGHIRWXY/LB1

Departure

Time 2026-05-07 18:43
Airport Warsaw Modlin Airport (EPMO)

Arrival

Time 2026-05-07 19:21
Airport Rzeszów-Jasionka Airport (EPRZ)
Time Latitude Longitude Altitude Speed Heading
2026-05-07 18:21 52.44763 20.65421 337 ft 0 kts 206°
2026-05-07 18:34 52.44772 20.65428 333 ft 2 kts 199°
2026-05-07 18:34 52.44788 20.65435 336 ft 2 kts 180°
2026-05-07 18:35 52.44803 20.65426 332 ft 2 kts 123°
2026-05-07 18:35 52.44805 20.65405 334 ft 1 kts 80°
2026-05-07 18:35 52.44805 20.65403 334 ft 0 kts 82°
2026-05-07 18:38 52.44805 20.65405 337 ft 1 kts 83°
2026-05-07 18:38 52.44808 20.65445 332 ft 7 kts 82°
2026-05-07 18:38 52.44819 20.65555 335 ft 13 kts 81°
2026-05-07 18:38 52.44833 20.65736 336 ft 19 kts 83°
2026-05-07 18:39 52.44855 20.65974 336 ft 23 kts 78°
2026-05-07 18:39 52.44882 20.66256 334 ft 27 kts 81°
2026-05-07 18:39 52.44912 20.66576 335 ft 27 kts 81°
2026-05-07 18:39 52.44920 20.66659 337 ft 4 kts 81°
2026-05-07 18:40 52.44925 20.66715 336 ft 7 kts 81°
2026-05-07 18:40 52.44938 20.66845 332 ft 16 kts 81°
2026-05-07 18:40 52.44960 20.67042 335 ft 15 kts 62°
2026-05-07 18:40 52.45049 20.67070 334 ft 12 kts 352°
2026-05-07 18:41 52.45133 20.67049 335 ft 12 kts 352°
2026-05-07 18:41 52.45180 20.67035 336 ft 0 kts 346°
2026-05-07 18:42 52.45215 20.67019 337 ft 11 kts 342°
2026-05-07 18:42 52.45281 20.66901 336 ft 20 kts 272°
2026-05-07 18:42 52.45246 20.66500 335 ft 65 kts 261°
2026-05-07 18:42 52.45137 20.65352 334 ft 136 kts 261°
2026-05-07 18:43 52.44983 20.63558 596 ft 171 kts 263°
2026-05-07 18:43 52.44858 20.62246 1185 ft 171 kts 263°
2026-05-07 18:43 52.44663 20.60366 2176 ft 164 kts 262°
2026-05-07 18:43 52.44483 20.58590 2994 ft 162 kts 262°
2026-05-07 18:44 52.44307 20.56584 3407 ft 192 kts 262°
2026-05-07 18:44 52.44125 20.54353 3836 ft 200 kts 262°
2026-05-07 18:44 52.43849 20.52101 3987 ft 206 kts 250°
2026-05-07 18:44 52.42919 20.50161 4079 ft 232 kts 215°
2026-05-07 18:45 52.41361 20.49329 4564 ft 243 kts 184°
2026-05-07 18:45 52.39657 20.49439 5151 ft 246 kts 178°
2026-05-07 18:45 52.37944 20.49684 5756 ft 248 kts 177°
2026-05-07 18:45 52.36222 20.49960 6357 ft 249 kts 177°
2026-05-07 18:46 52.34486 20.50250 6912 ft 251 kts 177°
2026-05-07 18:46 52.32759 20.50547 7471 ft 254 kts 176°
2026-05-07 18:46 52.30919 20.50861 7794 ft 271 kts 176°
2026-05-07 18:46 52.29028 20.51177 8379 ft 280 kts 176°
2026-05-07 18:47 52.27095 20.51500 9286 ft 279 kts 176°
2026-05-07 18:47 52.25154 20.51827 10124 ft 282 kts 176°
2026-05-07 18:47 52.23191 20.52160 10899 ft 284 kts 176°
2026-05-07 18:47 52.21219 20.52498 11729 ft 285 kts 176°
2026-05-07 18:48 52.19236 20.52840 12549 ft 287 kts 176°
2026-05-07 18:48 52.17234 20.53188 13401 ft 291 kts 176°
2026-05-07 18:48 52.15212 20.54034 13672 ft 320 kts 155°
2026-05-07 18:48 52.13314 20.56202 13958 ft 343 kts 144°
2026-05-07 18:49 52.11439 20.58699 14519 ft 352 kts 143°
2026-05-07 18:49 52.09540 20.61264 15276 ft 355 kts 144°
2026-05-07 18:49 52.07646 20.63780 16067 ft 357 kts 144°
2026-05-07 18:49 52.05693 20.66323 16833 ft 361 kts 145°
2026-05-07 18:50 52.03712 20.68853 17591 ft 364 kts 145°
2026-05-07 18:50 52.01701 20.71382 18336 ft 367 kts 146°
2026-05-07 18:50 51.99671 20.73913 19074 ft 367 kts 146°
2026-05-07 18:50 51.97650 20.76416 19968 ft 362 kts 147°
2026-05-07 18:51 51.95666 20.78867 20936 ft 355 kts 147°
2026-05-07 18:51 51.93709 20.81278 21820 ft 352 kts 148°
2026-05-07 18:51 51.91760 20.83672 22639 ft 351 kts 148°
2026-05-07 18:51 51.89813 20.86059 23455 ft 349 kts 148°
2026-05-07 18:52 51.87878 20.88427 23835 ft 346 kts 149°
2026-05-07 18:52 51.85955 20.90779 23983 ft 349 kts 149°
2026-05-07 18:52 51.84018 20.93141 23968 ft 349 kts 148°
2026-05-07 18:52 51.82085 20.95499 23982 ft 348 kts 148°
2026-05-07 18:53 51.80136 20.97871 24238 ft 353 kts 148°
2026-05-07 18:53 51.78187 21.00243 24820 ft 351 kts 148°
2026-05-07 18:53 51.76227 21.02627 24927 ft 351 kts 148°
2026-05-07 18:53 51.74307 21.04962 24959 ft 347 kts 148°
2026-05-07 18:54 51.72365 21.07322 24958 ft 343 kts 148°
2026-05-07 18:54 51.70481 21.09606 24971 ft 343 kts 149°
2026-05-07 18:54 51.68547 21.11947 24975 ft 343 kts 148°
2026-05-07 18:54 51.66661 21.14227 24979 ft 343 kts 148°
2026-05-07 18:55 51.64751 21.16533 24977 ft 344 kts 148°
2026-05-07 18:55 51.62833 21.18847 24975 ft 344 kts 148°
2026-05-07 18:55 51.60919 21.21153 24976 ft 344 kts 148°
2026-05-07 18:55 51.59001 21.23463 24989 ft 345 kts 149°
2026-05-07 18:56 51.57078 21.25776 24983 ft 345 kts 148°
2026-05-07 18:56 51.55156 21.28086 24987 ft 345 kts 149°
2026-05-07 18:56 51.53225 21.30404 24984 ft 346 kts 149°
2026-05-07 18:56 51.51295 21.32718 24988 ft 346 kts 149°
2026-05-07 18:57 51.49368 21.35026 24987 ft 346 kts 149°
2026-05-07 18:57 51.47437 21.37337 24991 ft 346 kts 148°
2026-05-07 18:57 51.45507 21.39644 24987 ft 346 kts 148°
2026-05-07 18:57 51.43579 21.41946 24987 ft 345 kts 148°
2026-05-07 18:58 51.41648 21.44249 24986 ft 345 kts 148°
2026-05-07 18:58 51.39721 21.46545 24982 ft 345 kts 148°
2026-05-07 18:58 51.37816 21.48812 24984 ft 345 kts 148°
2026-05-07 18:58 51.35908 21.51080 24979 ft 345 kts 148°
2026-05-07 18:59 51.33967 21.53385 24976 ft 345 kts 148°
2026-05-07 18:59 51.32041 21.55670 24975 ft 344 kts 148°
2026-05-07 18:59 51.30119 21.57947 24971 ft 344 kts 148°
2026-05-07 18:59 51.28191 21.60229 24971 ft 344 kts 148°
2026-05-07 19:00 51.26262 21.62511 24968 ft 344 kts 148°
2026-05-07 19:00 51.24343 21.64777 24968 ft 344 kts 148°
2026-05-07 19:00 51.22431 21.67035 24953 ft 339 kts 148°
2026-05-07 19:00 51.20545 21.69261 24954 ft 335 kts 148°
2026-05-07 19:01 51.18668 21.71471 24956 ft 335 kts 148°
2026-05-07 19:01 51.16784 21.73685 24957 ft 337 kts 148°
2026-05-07 19:01 51.14891 21.75907 24705 ft 338 kts 148°
2026-05-07 19:01 51.13031 21.78092 24431 ft 335 kts 148°
2026-05-07 19:02 51.11182 21.80261 24103 ft 334 kts 148°
2026-05-07 19:02 51.09288 21.82479 23757 ft 332 kts 148°
2026-05-07 19:02 51.07436 21.84647 23391 ft 330 kts 148°
2026-05-07 19:02 51.05591 21.86804 22987 ft 329 kts 148°
2026-05-07 19:03 51.03752 21.88952 22610 ft 327 kts 148°
2026-05-07 19:03 51.01924 21.91085 22256 ft 324 kts 148°
2026-05-07 19:03 51.00109 21.93201 21903 ft 322 kts 148°
2026-05-07 19:03 50.98308 21.95297 21559 ft 320 kts 148°
2026-05-07 19:04 50.96518 21.97381 21216 ft 318 kts 148°
2026-05-07 19:04 50.94742 21.99444 20885 ft 316 kts 147°
2026-05-07 19:04 50.92970 22.01501 20547 ft 314 kts 147°
2026-05-07 19:04 50.91211 22.03541 20207 ft 313 kts 147°
2026-05-07 19:05 50.89455 22.05576 19873 ft 312 kts 147°
2026-05-07 19:05 50.87709 22.07597 19539 ft 310 kts 147°
2026-05-07 19:05 50.85968 22.09610 19210 ft 309 kts 147°
2026-05-07 19:05 50.84236 22.11611 18884 ft 308 kts 147°
2026-05-07 19:06 50.82498 22.13617 18548 ft 308 kts 147°
2026-05-07 19:06 50.79042 22.17600 17836 ft 307 kts 147°
2026-05-07 19:06 50.77316 22.19588 17480 ft 305 kts 147°
2026-05-07 19:07 50.75600 22.21562 17138 ft 304 kts 147°
2026-05-07 19:07 50.73893 22.23523 16805 ft 302 kts 147°
2026-05-07 19:07 50.72196 22.25472 16476 ft 301 kts 147°
2026-05-07 19:07 50.70532 22.27380 16150 ft 299 kts 147°
2026-05-07 19:08 50.68852 22.29306 15835 ft 298 kts 147°
2026-05-07 19:08 50.67176 22.31225 15512 ft 297 kts 147°
2026-05-07 19:08 50.65508 22.33133 15196 ft 295 kts 148°
2026-05-07 19:08 50.63845 22.35033 14869 ft 295 kts 147°
2026-05-07 19:09 50.62186 22.36928 14554 ft 294 kts 147°
2026-05-07 19:09 50.60533 22.38813 14244 ft 293 kts 148°
2026-05-07 19:09 50.58880 22.40698 13927 ft 292 kts 148°
2026-05-07 19:09 50.57234 22.42572 13577 ft 292 kts 148°
2026-05-07 19:10 50.55595 22.44437 13230 ft 292 kts 147°
2026-05-07 19:10 50.53943 22.46316 12899 ft 290 kts 148°
2026-05-07 19:10 50.52302 22.48179 12462 ft 293 kts 147°
2026-05-07 19:10 50.50657 22.50045 12138 ft 291 kts 147°
2026-05-07 19:11 50.48920 22.51506 11802 ft 284 kts 167°
2026-05-07 19:11 50.46975 22.51832 11573 ft 275 kts 185°
2026-05-07 19:11 50.45102 22.51550 11278 ft 272 kts 188°
2026-05-07 19:11 50.43225 22.51205 10982 ft 271 kts 188°
2026-05-07 19:12 50.41357 22.50873 10685 ft 270 kts 188°
2026-05-07 19:12 50.39496 22.50561 10392 ft 269 kts 188°
2026-05-07 19:12 50.37630 22.50258 10116 ft 267 kts 187°
2026-05-07 19:12 50.35812 22.49967 10005 ft 259 kts 187°
2026-05-07 19:13 50.34033 22.49683 9748 ft 257 kts 187°
2026-05-07 19:13 50.32258 22.49399 9434 ft 257 kts 187°
2026-05-07 19:13 50.30480 22.49116 9130 ft 256 kts 187°
2026-05-07 19:13 50.28721 22.48836 8840 ft 255 kts 187°
2026-05-07 19:14 50.26958 22.48556 8556 ft 254 kts 187°
2026-05-07 19:14 50.25195 22.48276 8273 ft 253 kts 187°
2026-05-07 19:14 50.23445 22.47998 7988 ft 252 kts 187°
2026-05-07 19:14 50.21676 22.47717 7561 ft 258 kts 187°
2026-05-07 19:15 50.19874 22.47431 7137 ft 263 kts 187°
2026-05-07 19:15 50.18040 22.47140 6703 ft 267 kts 187°
2026-05-07 19:15 50.16171 22.46844 6247 ft 273 kts 187°
2026-05-07 19:15 50.14290 22.46545 5754 ft 277 kts 188°
2026-05-07 19:16 50.12465 22.45635 5246 ft 278 kts 213°
2026-05-07 19:16 50.11116 22.43537 4881 ft 275 kts 239°
2026-05-07 19:16 50.10455 22.40778 4590 ft 271 kts 261°
2026-05-07 19:16 50.10406 22.37866 4314 ft 268 kts 270°
2026-05-07 19:17 50.10469 22.34971 4086 ft 262 kts 271°
2026-05-07 19:17 50.10530 22.32269 4174 ft 241 kts 271°
2026-05-07 19:17 50.10584 22.29740 4064 ft 226 kts 270°
2026-05-07 19:17 50.10627 22.27378 3963 ft 210 kts 270°
2026-05-07 19:18 50.10663 22.25177 3834 ft 194 kts 270°
2026-05-07 19:18 50.10720 22.23170 3611 ft 179 kts 271°
2026-05-07 19:18 50.10756 22.21340 3392 ft 167 kts 270°
2026-05-07 19:18 50.10779 22.19589 3188 ft 151 kts 270°
2026-05-07 19:19 50.10797 22.18022 2978 ft 144 kts 270°
2026-05-07 19:19 50.10808 22.16473 2583 ft 142 kts 269°
2026-05-07 19:19 50.10818 22.14928 2150 ft 143 kts 271°
2026-05-07 19:19 50.10848 22.13391 1785 ft 137 kts 271°
2026-05-07 19:20 50.10869 22.11950 1648 ft 136 kts 271°
2026-05-07 19:20 50.10888 22.10434 1454 ft 142 kts 270°
2026-05-07 19:20 50.10907 22.08895 1271 ft 141 kts 271°
2026-05-07 19:20 50.10931 22.07363 1073 ft 141 kts 270°
2026-05-07 19:21 50.10943 22.05844 850 ft 140 kts 271°
2026-05-07 19:21 50.10965 22.04343 693 ft 137 kts 270°
2026-05-07 19:21 50.10981 22.03054 688 ft 89 kts 271°
2026-05-07 19:21 50.10990 22.02431 695 ft 30 kts 271°
2026-05-07 19:22 50.11011 22.02312 688 ft 5 kts 314°
2026-05-07 19:22 50.11049 22.02299 692 ft 6 kts 359°
2026-05-07 19:22 50.11100 22.02299 690 ft 9 kts
2026-05-07 19:22 50.11177 22.02303 690 ft 13 kts
2026-05-07 19:23 50.11278 22.02306 690 ft 16 kts
2026-05-07 19:23 50.11325 22.02422 690 ft 12 kts 93°
2026-05-07 19:23 50.11339 22.02512 684 ft 6 kts 42°
2026-05-07 19:23 50.11383 22.02534 690 ft 7 kts
2026-05-07 19:24 50.11408 22.02535 688 ft 3 kts
2026-05-07 19:24 50.11412 22.02535 687 ft 0 kts